Location: Kermapucano
(48.0667°N, 3.3000°W)
Time: 20:32:42
(UTC+00:00)

Meteor 1-26 Rocket - Pass Details

Date: 29 November 2020
Orbit: 807 x 928 km, 81.3° (Epoch: 27 January)

Event Time Altitude Azimuth Distance (km) Brightness Sun altitude
Exits shadow 04:49:18 25° 356° (N) 1,728 5.7 -27.8°
Maximum altitude 04:52:50 73° 77° (ENE) 907 4.4 -27.2°
Drops below altitude 10° 04:58:26 10° 162° (SSE) 2,463 6.8 -26.3°
Sets 05:00:48 0° 165° (SSE) 3,377 7.6 -25.9°
